Weather History for Thedford, NE

Change the Weather History Date:

Thursday, April 24, 2014

  Actual Average (KLBF) Record (KLBF)
Temperature  
Mean Temperature 56 °F 50 °F  
Max Temperature 69 °F 65 °F 93 °F (2012)
Min Temperature 43 °F 36 °F 14 °F (2013)
Degree Days  
Heating Degree Days 9 15  
Month to date heating degree days 444  
Since 1 July heating degree days 6309  
Cooling Degree Days 0 0  
Month to date cooling degree days 0  
Year to date cooling degree days 0  
Growing Degree Days 6 (Base 50)    
Moisture  
Dew Point 24 °F    
Average Humidity 33    
Maximum Humidity 65    
Minimum Humidity 11    
Precipitation  
Precipitation 0.00 in 0.08 in 1.78 in (1935)
Month to date precipitation 1.73  
Year to date precipitation 3.62  
Snow  
Snow 0.00 in 0.10 in 2.30 in (1907)
Month to date snowfall 3.0  
Since 1 July snowfall 28.3  
Snow Depth -    
Sea Level Pressure  
Sea Level Pressure 29.82 in    
Wind  
Wind Speed 13 mph (NW)    
Max Wind Speed 22 mph    
Max Gust Speed 30 mph    
Visibility 10 miles    
Events      
T = Trace of Precipitation, MM = Missing Value Source: NWS Daily Summary

Daily Weather History Graph

Daily Weather History Graph

Search for Another Location

Airport:

Trip Planner

Search our weather history database for the weather conditions in past years. The results will help you decide how hot, cold, wet, or windy it might be!

Date:

Astronomy

Apr. 24, 2014 Rise Set
Actual Time 6:48 AM CDT 8:33 PM CDT
Civil Twilight 6:18 AM CDT 9:03 PM CDT
Nautical Twilight 5:42 AM CDT 9:39 PM CDT
Astronomical Twilight 5:03 AM CDT 10:18 PM CDT
Moon 4:05 AM CDT (4/24) 3:46 PM CDT (4/24)
Length of Visible Light 14h 44m
Length of Day
13h 45m
Waning Crescent, 24% of the Moon is Illuminated
Apr 24
Waning Crescent
Apr 29
New
May 6
First Quarter
May 14
Full
May 21
Last Quarter

Hourly Weather History & Observations

Time (CDT) Temp. Windchill Dew Point Humidity Pressure Visibility Wind Dir Wind Speed Gust Speed Precip Events Conditions
12:15 AM 54.5 °F - 37.6 °F 53% 29.76 in 10.0 mi NW 15.0 mph 24.2 mph N/A   Overcast
12:35 AM 54.5 °F - 37.6 °F 53% 29.78 in 10.0 mi NNW 15.0 mph 24.2 mph N/A   Overcast
12:55 AM 54.5 °F - 37.4 °F 52% 29.78 in 10.0 mi NNW 15.0 mph 20.7 mph N/A   Overcast
1:15 AM 54.0 °F - 37.4 °F 54% 29.79 in 10.0 mi NNW 16.1 mph 25.3 mph N/A   Overcast
1:35 AM 53.6 °F - 37.4 °F 54% 29.79 in 10.0 mi NNW 15.0 mph 24.2 mph N/A   Overcast
1:55 AM 53.1 °F - 37.6 °F 56% 29.80 in 10.0 mi NNW 15.0 mph 23.0 mph N/A   Overcast
2:15 AM 53.1 °F - 37.4 °F 55% 29.80 in 10.0 mi NNW 16.1 mph 26.5 mph N/A   Overcast
2:35 AM 52.7 °F - 36.9 °F 55% 29.79 in 10.0 mi NNW 16.1 mph 21.9 mph N/A   Overcast
2:55 AM 52.3 °F - 36.5 °F 55% 29.79 in 10.0 mi NNW 13.8 mph - N/A   Overcast
3:15 AM 52.2 °F - 36.3 °F 55% 29.79 in 10.0 mi NNW 12.7 mph - N/A   Overcast
3:35 AM 51.6 °F - 36.1 °F 56% 29.78 in 10.0 mi NNW 12.7 mph - N/A   Mostly Cloudy
3:55 AM 51.3 °F - 36.1 °F 56% 29.78 in 10.0 mi NNW 11.5 mph - N/A   Mostly Cloudy
4:15 AM 50.7 °F - 36.0 °F 57% 29.78 in 10.0 mi NNW 13.8 mph 17.3 mph N/A   Scattered Clouds
4:35 AM 49.5 °F - 35.6 °F 59% 29.79 in 10.0 mi NW 10.4 mph - N/A   Clear
4:55 AM 49.1 °F - 35.6 °F 60% 29.80 in 10.0 mi NW 10.4 mph - N/A   Clear
5:15 AM 48.7 °F - 34.9 °F 59% 29.81 in 10.0 mi NW 10.4 mph - N/A   Clear
5:35 AM 48.2 °F - 34.2 °F 58% 29.82 in 10.0 mi NW 10.4 mph - N/A   Clear
5:55 AM 47.1 °F - 33.6 °F 59% 29.82 in 10.0 mi WNW 9.2 mph - N/A   Clear
6:15 AM 46.0 °F 41.4 °F 33.4 °F 61% 29.83 in 10.0 mi WNW 9.2 mph - N/A   Clear
6:35 AM 44.8 °F 39.4 °F 33.3 °F 64% 29.83 in 10.0 mi WNW 10.4 mph - N/A   Clear
6:55 AM 44.1 °F 39.0 °F 32.9 °F 65% 29.84 in 10.0 mi WNW 9.2 mph - N/A   Clear
7:15 AM 43.9 °F 38.3 °F 32.5 °F 64% 29.85 in 10.0 mi WNW 10.4 mph - N/A   Clear
7:35 AM 44.4 °F 39.5 °F 33.1 °F 64% 29.86 in 10.0 mi WNW 9.2 mph - N/A   Clear
7:55 AM 45.3 °F 40.1 °F 33.3 °F 63% 29.86 in 10.0 mi WNW 10.4 mph - N/A   Clear
8:15 AM 47.3 °F - 33.6 °F 59% 29.86 in 10.0 mi WNW 11.5 mph - N/A   Clear
8:35 AM 49.6 °F - 33.4 °F 54% 29.87 in 10.0 mi NW 9.2 mph - N/A   Clear
8:55 AM 52.5 °F - 32.4 °F 46% 29.86 in 10.0 mi NW 15.0 mph 20.7 mph N/A   Clear
9:15 AM 54.5 °F - 29.3 °F 38% 29.87 in 10.0 mi NW 16.1 mph 21.9 mph N/A   Clear
9:35 AM 56.3 °F - 26.2 °F 32% 29.86 in 10.0 mi NW 18.4 mph 21.9 mph N/A   Clear
9:55 AM 57.7 °F - 23.5 °F 27% 29.87 in 10.0 mi NW 20.7 mph 24.2 mph N/A   Clear
10:15 AM 58.5 °F - 23.9 °F 26% 29.86 in 10.0 mi NNW 18.4 mph 23.0 mph N/A   Clear
10:35 AM 60.1 °F - 21.4 °F 23% 29.86 in 10.0 mi NNW 19.6 mph 24.2 mph N/A   Clear
10:55 AM 61.0 °F - 16.7 °F 18% 29.86 in 10.0 mi NNW 17.3 mph 26.5 mph N/A   Clear
11:15 AM 61.5 °F - 16.7 °F 18% 29.87 in 10.0 mi NW 18.4 mph 27.6 mph N/A   Clear
11:35 AM 63.1 °F - 17.8 °F 17% 29.87 in 10.0 mi NW 20.7 mph 24.2 mph N/A   Clear
11:55 AM 63.5 °F - 15.3 °F 15% 29.87 in 10.0 mi NW 20.7 mph 28.8 mph N/A   Clear
12:15 PM 63.7 °F - 14.7 °F 15% 29.87 in 10.0 mi NW 15.0 mph 27.6 mph N/A   Clear
12:35 PM 64.2 °F - 14.2 °F 14% 29.86 in 10.0 mi NW 13.8 mph 26.5 mph N/A   Clear
12:55 PM 64.6 °F - 13.6 °F 14% 29.85 in 10.0 mi NNW 13.8 mph 28.8 mph N/A   Clear
1:15 PM 65.8 °F - 14.5 °F 14% 29.85 in 10.0 mi NW 15.0 mph 27.6 mph N/A   Clear
1:35 PM 66.2 °F - 14.5 °F 14% 29.85 in 10.0 mi NW 17.3 mph 27.6 mph N/A   Clear
1:55 PM 67.1 °F - 13.6 °F 13% 29.84 in 10.0 mi NNW 15.0 mph 25.3 mph N/A   Clear
2:15 PM 66.9 °F - 12.2 °F 12% 29.83 in 10.0 mi WNW 21.9 mph 27.6 mph N/A   Clear
2:35 PM 67.8 °F - 12.6 °F 12% 29.83 in 10.0 mi WNW 19.6 mph 29.9 mph N/A   Clear
2:55 PM 68.5 °F - 12.7 °F 12% 29.83 in 10.0 mi NW 15.0 mph 25.3 mph N/A   Clear
3:15 PM 68.2 °F - 11.7 °F 11% 29.83 in 10.0 mi NW 17.3 mph 25.3 mph N/A   Clear
3:35 PM 68.7 °F - 12.0 °F 11% 29.82 in 10.0 mi WNW 18.4 mph 25.3 mph N/A   Clear
3:55 PM 68.5 °F - 12.7 °F 12% 29.82 in 10.0 mi NW 12.7 mph 23.0 mph N/A   Clear
4:15 PM 68.4 °F - 13.1 °F 12% 29.81 in 10.0 mi WNW 10.4 mph 20.7 mph N/A   Clear
4:35 PM 69.3 °F - 14.5 °F 12% 29.80 in 10.0 mi NW 19.6 mph 24.2 mph N/A   Clear
4:55 PM 69.6 °F - 13.6 °F 12% 29.80 in 10.0 mi West 11.5 mph 20.7 mph N/A   Clear
5:15 PM 68.7 °F - 13.3 °F 12% 29.79 in 10.0 mi NW 11.5 mph 21.9 mph N/A   Clear
5:35 PM 69.4 °F - 13.1 °F 11% 29.79 in 10.0 mi WNW 11.5 mph 21.9 mph N/A   Clear
5:55 PM 68.9 °F - 12.4 °F 11% 29.79 in 10.0 mi West 16.1 mph 20.7 mph N/A   Clear
6:15 PM 69.1 °F - 12.9 °F 11% 29.79 in 10.0 mi NW 9.2 mph 20.7 mph N/A   Clear
6:35 PM 68.5 °F - 12.9 °F 12% 29.79 in 10.0 mi NW 9.2 mph - N/A   Clear
6:55 PM 68.4 °F - 13.5 °F 12% 29.80 in 10.0 mi WNW 6.9 mph - N/A   Clear
7:15 PM 66.6 °F - 13.5 °F 13% 29.80 in 10.0 mi NW 6.9 mph - N/A   Clear
7:35 PM 66.6 °F - 14.0 °F 13% 29.80 in 10.0 mi NNW 5.8 mph - N/A   Clear
7:55 PM 65.3 °F - 15.4 °F 15% 29.80 in 10.0 mi WNW 6.9 mph - N/A   Clear
8:15 PM 63.3 °F - 17.6 °F 17% 29.80 in 10.0 mi Calm Calm - N/A   Clear
8:35 PM 60.4 °F - 16.7 °F 18% 29.81 in 10.0 mi Calm Calm - N/A   Clear
8:55 PM 59.0 °F - 16.5 °F 19% 29.81 in 10.0 mi Calm Calm - N/A   Clear
9:15 PM 57.0 °F - 17.6 °F 21% 29.81 in 10.0 mi Calm Calm - N/A   Clear
9:35 PM 54.3 °F - 18.7 °F 25% 29.82 in 10.0 mi Calm Calm - N/A   Clear
9:55 PM 52.0 °F - 18.9 °F 27% 29.83 in 10.0 mi Calm Calm - N/A   Clear
10:15 PM 51.6 °F - 19.6 °F 28% 29.83 in 10.0 mi Calm Calm - N/A   Clear
10:35 PM 49.5 °F - 20.1 °F 31% 29.83 in 10.0 mi Calm Calm - N/A   Clear
10:55 PM 50.2 °F - 19.8 °F 30% 29.83 in 10.0 mi SE 3.5 mph - N/A   Clear
11:15 PM 48.4 °F - 19.8 °F 32% 29.83 in 10.0 mi Calm Calm - N/A   Clear
11:35 PM 47.5 °F - 20.1 °F 34% 29.83 in 10.0 mi Calm Calm - N/A   Scattered Clouds
11:55 PM 46.2 °F - 25.2 °F 44% 29.83 in 10.0 mi Calm Calm - N/A   Scattered Clouds